STARLINK-2407, 47822

Orbit data source: Space-Track

STARLINK-2407, 47822 is a payload satellite owned by SpaceX/Seattle (US) in LEO that was launched on Thu, 11 Mar 2021 UTC via an FALCON 9 launch vehicle from the Air Force Eastern Test Range (AFETR). Payload-class satellites include a variety of spacecraft equipped with specific instruments for various scientific and technological missions. These include communications satellites like Starlink; space stations such as the ISS; scientific satellites like the Hubble; Earth observation satellites from companies like Planet Labs, Umbra, and HawkEye 360; GPS; miniature CubeSats for education and research; and military/defense satellites.

Loading next visibility...
Identifier
47822, 2021-018AM
Orbit
LEO
Country
Flag of USUS
Related business
Manufacturer
SpaceX/Seattle
Mission
Operational Commercial Communications
Bus & Motor
STARLINK, Unknown motor
Mass
260 kg wet, ~248 kg dry
Launch date (UTC)
2021-03-11 (5 years ago)
Launch vehicle
FALCON 9
Launch site
Air Force Eastern Test Range (AFETR)
Object type
Payload
Rocket body
Debris
Shape & HBR
Box + 1 Pan, 10.1 m
Radar Cross Section
13.562 m², Large (>1 m²)

Expand to show TLE details & history
Last TLE update: 13 hours ago

TLE from 13 hours ago
0 STARLINK-2407
1 47822U 21018AM  26119.99199406  .00003808  00000-0  13442-3 0  9997
2 47822  53.1608  16.7936 0001114  94.1519 265.9610 15.31699322284415
Epoch: 2026-04-29T23:48Z
TLE epoch observation values (Epoch: 2026-04-29T23:48:28.286Z)
Latitude
-0.00002°
Longitude
161.73072°
Altitude
471.696 km
Speed
7.631 km/s
True Right ascension
01h 07m 10s
True Declination
0° 00' 00"
Sunlit
Object was in daylight at epoch
Visualization orbit readout
Latitude
Unknown
Longitude
Unknown
Altitude
Unknown
Speed
Unknown
Apparent Right ascension
Unknown
Apparent Declination
Unknown
Sunlit
N/A
Visualization observer readout
Local Sidereal Time
20:12:59
Azimuth
Unknown
Elevation
Unknown
Doppler factor
Unknown
Orbital elements
Apogee altitude
471.761 km
Perigee altitude
470.235 km
Semi-major axis
6,849.135 km
Eccentricity
0.00011
Inclination
53.1608°
RAAN
16.7936°
Arg. of periapsis
94.1519°
True anomaly
265.94827°
Mean anomaly
265.961°
Eccentric anomaly
265.95463°
Mean motion
3.82904 °/min
Orbital period
94.02 mins
BSTAR
0.00013442
Loading maneuver chart data...
Computing Atmospheric mass density...
Loading historical data...
Loading historical data...
Loading historical data...
Loading historical data...
Loading historical data...
Loading historical data...
Loading historical data...

Documentation

Showing up to 5 results
|